Location: Brown Observing Site
(43.4354°N, 116.3366°W)
Time: 01:43:28
(UTC-06:00)

Envisat - Pass Details

Date: 01 October 2020
Orbit: 764 x 766 km, 98.1° (Epoch: 23 October)

Event Time Altitude Azimuth Distance (km) Brightness Sun altitude
Rises 20:02:11 0° 203° (SSW) 3,217 6.5 -7.5°
Reaches altitude 10° 20:05:00 10° 219° (SW) 2,296 6.0 -8.1°
Maximum altitude 20:08:48 21° 268° (W) 1,664 6.0 -8.7°
Drops below altitude 10° 20:12:37 10° 317° (NW) 2,308 6.2 -9.4°
Sets 20:15:29 0° 333° (NNW) 3,240 6.7 -10.0°
